VK5KX Weather Reports


Display with metric or nautical units.
time (UTC)temp
F
wind
direction
speed
MPH
gust
MPH
rain 1hr
in
rain 24hr
in
rain mn
in
humidity
%
barometer
mb
20260509001522 58 50 0.0 0.0 0.00 0.02 0.00 95 1030.9
20260509000019 57 125 0.0 0.0 0.00 0.02 0.00 95 1031.1
20260508234516 56 129 0.0 0.0 0.00 0.02 0.00 95 1031.1
20260508233013 55 129 0.0 0.0 0.00 0.02 0.00 96 1031.1
20260508231509 54 129 0.0 0.0 0.00 0.02 0.00 95 1031.0
20260508230007 53 129 0.0 0.0 0.00 0.02 0.00 96 1030.9
20260508224512 52 129 0.0 0.0 0.00 0.02 0.00 95 1030.7
20260508223002 51 129 0.0 0.0 0.00 0.02 0.00 95 1030.6
20260508221504 51 129 0.0 0.0 0.00 0.02 0.00 95 1030.6
20260508220104 50 129 0.0 0.0 0.00 0.02 0.00 94 1030.5
20260508214559 50 129 0.0 0.0 0.00 0.02 0.00 94 1030.4
20260508213058 51 129 0.0 0.0 0.00 0.02 0.00 94 1030.3
20260508211555 51 129 0.0 0.0 0.00 0.02 0.00 94 1030.1
20260508210055 51 129 0.0 0.0 0.00 0.02 0.00 94 1030.1
20260508204554 52 129 0.0 0.0 0.00 0.02 0.00 94 1030.0
20260508203051 52 129 0.0 0.0 0.00 0.02 0.00 94 1029.9
20260508201551 52 129 0.0 0.0 0.00 0.02 0.00 94 1029.7
20260508200051 52 129 0.0 0.0 0.00 0.02 0.00 95 1029.6
20260508194603 52 129 0.0 0.0 0.00 0.02 0.00 95 1029.5
20260508193105 51 129 0.0 0.0 0.00 0.02 0.00 94 1029.5
20260508191557 51 129 0.0 0.0 0.00 0.02 0.00 94 1029.3
20260508190107 50 129 0.0 0.0 0.00 0.02 0.00 94 1029.3
20260508184546 50 129 0.0 0.0 0.00 0.02 0.00 94 1029.2
20260508183045 49 129 0.0 0.0 0.00 0.02 0.00 93 1029.3
20260508181548 49 129 0.0 0.0 0.00 0.02 0.00 93 1029.4
20260508180043 49 129 0.0 0.0 0.00 0.02 0.00 93 1029.5
20260508174543 49 129 0.0 0.0 0.00 0.02 0.00 93 1029.5
20260508173040 49 129 0.0 0.0 0.00 0.02 0.00 93 1029.7
20260508171543 50 129 0.0 0.0 0.00 0.02 0.00 93 1029.6
20260508170037 50 129 0.0 0.0 0.00 0.02 0.00 93 1029.6
20260508164536 50 129 0.0 0.0 0.00 0.02 0.00 92 1029.5
20260508163041 50 129 0.0 0.0 0.00 0.02 0.00 92 1029.5
20260508161546 50 129 0.0 0.0 0.00 0.02 0.00 92 1029.5
20260508160031 51 129 0.0 0.0 0.00 0.02 0.00 92 1029.6
20260508154530 51 129 0.0 0.0 0.00 0.02 0.00 92 1029.6
20260508153048 51 129 0.0 0.0 0.00 0.02 0.00 92 1029.6
20260508151526 51 129 0.0 0.0 0.00 0.02 0.00 91 1029.7
20260508150024 52 129 0.0 0.0 0.00 0.02 0.00 91 1029.7
20260508144522 52 129 0.0 0.0 0.00 0.02 0.00 91 1029.8
20260508143020 52 129 0.0 0.0 0.00 0.02 0.00 91 1029.8
20260508141519 53 129 0.0 0.0 0.00 0.02 0.02 90 1029.8
20260508140018 53 129 0.0 0.0 0.00 0.02 0.02 90 1029.9
20260508134516 53 129 0.0 0.0 0.00 0.02 0.02 89 1030.1
20260508133015 53 129 0.0 0.0 0.00 0.02 0.02 90 1030.1
20260508131514 54 129 0.0 0.0 0.00 0.02 0.02 89 1030.2
20260508130013 54 129 0.0 0.0 0.00 0.02 0.02 89 1030.2
20260508124514 54 129 0.0 0.0 0.00 0.02 0.02 88 1030.3
20260508123020 54 129 0.0 0.0 0.00 0.02 0.02 87 1030.4
20260508121509 55 129 0.0 0.0 0.00 0.02 0.02 87 1030.3
20260508120008 55 129 0.0 0.0 0.00 0.02 0.02 86 1030.3
20260508114506 56 129 0.0 0.0 0.00 0.02 0.02 86 1030.3
20260508113005 56 129 0.0 0.0 0.00 0.02 0.02 85 1030.2
20260508111505 57 129 0.0 0.0 0.00 0.02 0.02 84 1030.1
20260508110006 57 129 0.0 0.0 0.00 0.02 0.02 84 1030.0
20260508104502 57 129 0.0 4.0 0.00 0.02 0.02 84 1029.9
20260508103003 58 123 2.0 4.0 0.00 0.02 0.02 84 1030.0
20260508101501 58 113 0.0 1.0 0.00 0.02 0.02 84 1030.0
20260508100000 59 126 0.0 2.0 0.00 0.02 0.02 84 1029.9
20260508094600 59 126 0.0 0.0 0.00 0.02 0.02 84 1029.9
20260508093059 59 126 1.0 3.0 0.00 0.02 0.02 84 1029.8
20260508091614 59 138 0.0 4.0 0.00 0.02 0.02 84 1029.7
20260508090100 59 111 1.0 4.0 0.00 0.02 0.02 84 1029.8
20260508084558 60 151 1.0 4.0 0.00 0.02 0.02 84 1029.6
20260508083058 60 125 1.0 4.0 0.00 0.02 0.02 82 1029.5
20260508081613 60 147 1.0 6.0 0.00 0.02 0.02 82 1029.4
20260508080101 61 182 2.0 6.0 0.00 0.02 0.02 81 1029.3
20260508074607 62 125 3.0 6.0 0.00 0.02 0.02 79 1029.2
20260508073056 62 156 2.0 7.0 0.00 0.02 0.02 78 1029.2
20260508071556 62 123 2.0 8.0 0.00 0.02 0.02 78 1029.0
20260508070056 62 118 3.0 9.0 0.00 0.02 0.02 79 1029.1
20260508064555 63 157 2.0 7.0 0.00 0.02 0.02 78 1029.1
20260508063057 63 104 2.0 9.0 0.00 0.02 0.02 77 1029.0
20260508061553 64 121 3.0 8.0 0.01 0.02 0.02 76 1029.1
20260508060106 64 127 3.0 9.0 0.01 0.02 0.02 74 1029.0
20260508054637 64 77 3.0 8.0 0.01 0.02 0.02 75 1029.0
20260508053053 64 130 3.0 8.0 0.01 0.02 0.02 74 1029.0
20260508051553 64 158 2.0 6.0 0.00 0.02 0.02 74 1029.1
20260508050049 64 122 2.0 7.0 0.00 0.02 0.02 75 1029.1
20260508044545 63 138 3.0 9.0 0.00 0.02 0.02 81 1029.2
20260508043042 62 126 2.0 8.0 0.01 0.02 0.02 85 1029.4
20260508041543 62 135 2.0 8.0 0.01 0.02 0.02 90 1029.5
20260508040038 61 123 2.0 7.0 0.01 0.02 0.02 88 1029.7
20260508034546 62 124 2.0 8.0 0.01 0.02 0.02 88 1029.8
20260508033036 62 110 2.0 7.0 0.00 0.01 0.01 89 1030.0
20260508031536 62 164 3.0 7.0 0.00 0.01 0.01 89 1030.1
20260508030034 61 134 2.0 6.0 0.00 0.01 0.01 88 1030.3
20260508024533 61 131 3.0 7.0 0.01 0.01 0.01 86 1030.6
20260508023031 61 141 2.0 9.0 0.01 0.01 0.01 88 1030.7
20260508021528 61 123 3.0 8.0 0.01 0.01 0.01 87 1031.0
20260508020028 61 164 1.0 4.0 0.01 0.01 0.01 88 1031.2
20260508014536 61 129 2.0 6.0 0.00 0.00 0.00 87 1031.2
20260508013024 60 197 2.0 8.0 0.00 0.00 0.00 89 1031.5
20260508011524 59 87 2.0 6.0 0.00 0.00 0.00 88 1031.7
20260508010039 59 67 1.0 5.0 0.00 0.00 0.00 87 1031.7
20260508004525 60 133 1.0 7.0 0.00 0.00 0.00 84 1031.7
20260508003019 60 87 3.0 7.0 0.00 0.00 0.00 80 1031.5